Location: High Cliff State Park
(44.1557°N, 88.2948°W)
Time: 06:54:55
(UTC-05:00)

Amateur Radio Satellites - All Passes

Search period start: 21 August 2017 06:24
Search period end: 22 August 2017 06:24
Location: High Cliff State Park, 44.1557°N, 88.2948°W

Satellite Date Start Highest point End Downlink Frequencies (MHz)
Time Altitude Azimuth
XW-2F 21 Aug 06:31:15 06:34:38 29° 96° (E) 06:38:00 145.980 - 146.000
DOVE 4 21 Aug 06:44:42 06:49:15 62° 287° (WNW) 06:53:31 437.250
NO-84 21 Aug 06:46:30 06:48:39 18° 22° (NNE) 06:50:52 435.350 FM
STARS 21 Aug 06:54:04 06:56:33 15° 269° (W) 06:59:02 437.465
KAITUO 1B 21 Aug 06:55:48 06:59:29 45° 99° (E) 07:03:08 145.475/437.950
CUTE 1.7 + AOD 2 21 Aug 06:59:13 07:01:12 13° 89° (E) 07:03:10 437.475
HO-68 21 Aug 07:02:36 07:08:01 22° 91° (E) 07:13:23 435.675
PCSat 21 Aug 07:02:42 07:07:40 35° 48° (NE) 07:12:36 145.827
STRAND 1 21 Aug 07:02:42 07:07:40 54° 71° (ENE) 07:12:39 437.568
SO-50 21 Aug 07:04:32 07:08:37 31° 45° (NE) 07:12:42 436.795
LilacSat-2 21 Aug 07:19:00 07:22:51 65° 285° (WNW) 07:26:41 437.200
XW-2D 21 Aug 07:22:54 07:26:42 59° 285° (WNW) 07:30:29 145.860 - 145.880
AO-85 21 Aug 07:26:54 07:29:32 17° 321° (NW) 07:32:11 145.980
NUDT-PHONESAT 21 Aug 07:28:06 07:31:51 73° 284° (WNW) 07:35:36 437.300
BEESAT 3 21 Aug 07:29:32 07:31:22 13° 326° (NW) 07:33:11 437.485
XW-2B 21 Aug 07:34:03 07:37:44 45° 287° (WNW) 07:41:25 145.730 - 145.750
AO-7 21 Aug 07:37:18 07:40:58 14° 320° (NW) 07:44:38 .
BEESAT 2 21 Aug 07:42:13 07:45:17 20° 319° (NW) 07:48:22 435.950
SEEDS 21 Aug 07:45:14 07:48:49 25° 94° (E) 07:52:20 437.485
CUTE-I 21 Aug 07:48:04 07:53:20 61° 289° (WNW) 07:58:32 437.470
XW-2C 21 Aug 07:53:28 07:56:46 27° 291° (WNW) 08:00:03 145.795 - 145.815
FO-29 21 Aug 07:55:35 08:01:15 25° 61° (ENE) 08:06:31 435.910
XW-2F 21 Aug 08:05:38 08:08:36 22° 293° (WNW) 08:11:34 145.980 - 146.000
AO-73 21 Aug 08:06:45 08:06:56 10° 88° (E) 08:07:07 145.935
NO-84 21 Aug 08:23:17 08:26:19 78° 219° (SW) 08:29:34 435.350 FM
XW-2A 21 Aug 08:25:08 08:28:30 57° 101° (E) 08:31:51 145.665 - 145.685
AAUSAT CUBESAT 2 21 Aug 08:29:34 08:33:26 34° 97° (E) 08:37:14 437.432
KAITUO 1B 21 Aug 08:30:56 08:33:06 15° 296° (WNW) 08:35:15 145.475/437.950
CUTE 1.7 + AOD 2 21 Aug 08:33:10 08:37:26 61° 286° (WNW) 08:41:39 437.475
UWE-3 21 Aug 08:39:30 08:43:38 47° 99° (E) 08:47:49 435.000/436.395/437.385
STRAND 1 21 Aug 08:43:30 08:47:11 20° 268° (W) 08:50:51 437.568
SO-50 21 Aug 08:44:55 08:49:07 37° 243° (WSW) 08:53:21 436.795
PCSat 21 Aug 08:46:05 08:51:07 40° 248° (WSW) 08:56:08 145.827
CUBEBUG 2 21 Aug 08:47:29 08:51:42 82° 282° (WNW) 08:55:59 437.445
Oscar 11 21 Aug 08:48:43 08:52:09 22° 93° (E) 08:55:34 .
HO-68 21 Aug 08:49:13 08:56:23 73° 290° (WNW) 09:03:30 435.675
Tancredo 1 21 Aug 08:53:45 08:56:05 22° 137° (SE) 08:58:25 437.200
O/OREOS (USA 219) 21 Aug 09:08:58 09:12:42 27° 104° (ESE) 09:16:29 437.305
ZACube-1 21 Aug 09:18:23 09:22:40 70° 102° (ESE) 09:27:01 437.345
PRISM 21 Aug 09:19:47 09:23:11 25° 66° (ENE) 09:26:36 437.425
UNISAT 6 21 Aug 09:20:33 09:24:30 35° 69° (ENE) 09:28:23 437.425
SEEDS 21 Aug 09:20:44 09:24:28 30° 291° (WNW) 09:28:11 437.485
DELFI C3 21 Aug 09:33:01 09:35:23 15° 91° (E) 09:37:45 145.870
FO-29 21 Aug 09:38:10 09:45:46 75° 257° (WSW) 09:52:38 435.910
AO-73 21 Aug 09:39:23 09:43:40 78° 285° (WNW) 09:48:02 145.935
TIGRISAT 21 Aug 09:55:06 09:59:25 76° 75° (ENE) 10:03:42 435.000
AAUSAT CUBESAT 2 21 Aug 10:05:26 10:08:41 22° 294° (WNW) 10:11:54 437.432
ISS 21 Aug 10:07:45 10:10:45 33° 140° (SE) 10:13:44 437.550
EO-88 21 Aug 10:07:59 10:10:51 21° 94° (E) 10:13:42 145.990 - 145.960
RS-15 21 Aug 10:08:28 10:18:36 32° 103° (ESE) 10:28:48 29.354- 29.394
M-CUBED/EXP-1 PRIME 21 Aug 10:12:22 10:15:58 23° 59° (ENE) 10:19:38 437.505
nSIGHT-1 21 Aug 10:15:29 10:18:34 41° 141° (SE) 10:21:41 .
UWE-3 21 Aug 10:16:57 10:19:45 17° 296° (WNW) 10:22:35 435.000/436.395/437.385
Oscar 11 21 Aug 10:24:22 10:28:22 36° 290° (WNW) 10:32:20 .
Tancredo 1 21 Aug 10:28:16 10:31:06 46° 335° (NNW) 10:33:56 437.200
HO-68 21 Aug 10:38:49 10:42:55 16° 310° (NW) 10:47:01 435.675
DUCHIFAT 1 21 Aug 10:40:02 10:41:24 11° 60° (ENE) 10:42:48 145.980
Max Valier Satellite 21 Aug 10:47:48 10:51:32 88° 113° (ESE) 10:55:14 145.860
O/OREOS (USA 219) 21 Aug 10:47:59 10:52:00 32° 302° (WNW) 10:56:03 437.305
PRISM 21 Aug 10:54:38 10:58:19 30° 263° (W) 11:02:03 437.425
ZACube-1 21 Aug 10:56:30 10:58:25 13° 298° (WNW) 11:00:21 437.345
UNISAT 6 21 Aug 10:57:54 11:01:17 22° 266° (W) 11:04:39 437.425
DELFI C3 21 Aug 11:06:34 11:10:23 44° 288° (WNW) 11:14:09 145.870
AIST 2D 21 Aug 11:08:47 11:12:13 60° 74° (ENE) 11:15:41 435.315
NANOSAT C BR1 21 Aug 11:22:28 11:26:16 34° 70° (ENE) 11:30:04 145.865
POLYITAN 1 21 Aug 11:27:23 11:31:21 43° 71° (ENE) 11:35:20 437.675
FO-29 21 Aug 11:28:05 11:31:38 14° 273° (W) 11:35:03 435.910
ESTCUBE 1 21 Aug 11:29:16 11:32:34 20° 92° (E) 11:35:52 437.505/2401.250
TIGRISAT 21 Aug 11:36:09 11:36:37 10° 272° (W) 11:37:05 435.000
LO-87 21 Aug 11:36:11 11:39:22 31° 97° (E) 11:42:31 145.935 - 145.965
EO-88 21 Aug 11:41:22 11:44:30 27° 291° (WNW) 11:47:37 145.990 - 145.960
QB50P2 21 Aug 11:42:18 11:46:29 70° 75° (ENE) 11:50:41 145.880/145.840
EO-79 21 Aug 11:42:52 11:47:01 65° 74° (ENE) 11:51:11 145.935-145.965
ISS 21 Aug 11:44:02 11:47:10 41° 337° (NNW) 11:50:19 437.550
M-CUBED/EXP-1 PRIME 21 Aug 11:45:44 11:50:03 45° 256° (WSW) 11:54:33 437.505
nSIGHT-1 21 Aug 11:51:56 11:55:00 36° 340° (NNW) 11:58:03 .
Gurwin Techsat 1B 21 Aug 12:00:41 12:01:12 10° 54° (NE) 12:01:42 435.225
Tancredo 1 21 Aug 12:04:34 12:06:46 19° 354° (N) 12:08:58 437.200
BUGSAT 1 21 Aug 12:11:11 12:14:44 29° 69° (ENE) 12:18:15 437.445
DUCHIFAT 1 21 Aug 12:12:18 12:16:28 76° 258° (WSW) 12:20:39 145.980
RS-15 21 Aug 12:17:36 12:29:55 81° 306° (NW) 12:42:21 29.354- 29.394
Oscar 19 21 Aug 12:19:06 12:22:56 22° 62° (ENE) 12:26:47 437.125/150
BEESAT 3 21 Aug 12:27:56 12:30:22 15° 37° (NE) 12:32:47 437.485
AO-85 21 Aug 12:34:44 12:37:04 14° 36° (NE) 12:39:29 145.980
NANOSAT C BR1 21 Aug 12:58:49 13:02:03 21° 266° (W) 13:05:17 145.865
AO-7 21 Aug 13:02:05 13:06:47 16° 43° (NE) 13:11:27 .
POLYITAN 1 21 Aug 13:04:33 13:07:20 17° 268° (W) 13:10:09 437.675
ESTCUBE 1 21 Aug 13:05:15 13:09:35 44° 289° (WNW) 13:13:53 437.505/2401.250
VELOX 1 21 Aug 13:09:36 13:13:49 43° 99° (E) 13:18:00 145.980
LO-87 21 Aug 13:10:10 13:12:34 17° 294° (WNW) 13:14:58 145.935 - 145.965
DX 1 21 Aug 13:11:14 13:13:16 13° 90° (E) 13:15:18 434.975-435.025
SPROUT 21 Aug 13:13:20 13:17:33 61° 101° (E) 13:21:44 437.525
ISS 21 Aug 13:21:37 13:24:14 21° 357° (N) 13:26:51 437.550
EO-79 21 Aug 13:21:41 13:23:12 12° 271° (W) 13:24:44 145.935-145.965
QB50P2 21 Aug 13:21:44 13:22:45 11° 271° (W) 13:23:46 145.880/145.840
nSIGHT-1 21 Aug 13:29:25 13:32:00 21° 359° (N) 13:34:35 .
Gurwin Techsat 1B 21 Aug 13:34:52 13:40:06 65° 73° (ENE) 13:45:24 435.225
Tancredo 1 21 Aug 13:40:12 13:42:38 23° 14° (NNE) 13:45:03 437.200
ITAMSAT 1 21 Aug 13:43:51 13:44:10 10° 54° (NE) 13:44:29 435.822/435.867
BUGSAT 1 21 Aug 13:46:43 13:50:04 24° 265° (W) 13:53:25 437.445
50 SAT 21 Aug 13:51:56 13:55:13 47° 100° (E) 13:58:28 437.505
Oscar 19 21 Aug 13:56:49 14:01:51 54° 260° (W) 14:06:57 437.125/150
BEESAT 3 21 Aug 14:04:27 14:08:28 79° 235° (SW) 14:12:23 437.485
AO-85 21 Aug 14:13:47 14:18:05 82° 57° (ENE) 14:22:42 145.980
BEESAT 2 21 Aug 14:19:29 14:23:28 51° 51° (NE) 14:27:24 435.950
YUBILEINY 21 Aug 14:19:36 14:23:57 15° 73° (ENE) 14:28:16 435.215
UKube-1 21 Aug 14:22:43 14:26:55 49° 100° (E) 14:31:05 .
RS-15 21 Aug 14:33:38 14:44:38 35° 335° (NNW) 14:55:34 29.354- 29.394
DX 1 21 Aug 14:45:33 14:49:52 62° 288° (WNW) 14:54:08 434.975-435.025
VELOX 1 21 Aug 14:46:44 14:49:58 20° 296° (WNW) 14:53:11 145.980
AO-7 21 Aug 14:49:43 14:57:54 62° 65° (ENE) 15:06:07 .
SPROUT 21 Aug 14:50:44 14:52:57 14° 298° (WNW) 14:55:10 437.525
ISS 21 Aug 14:58:25 15:01:24 31° 17° (NNE) 15:04:21 437.550
nSIGHT-1 21 Aug 15:06:00 15:09:01 34° 19° (NNE) 15:12:01 .
BEESAT 21 Aug 15:06:11 15:09:21 17° 92° (E) 15:12:29 436.000
Tancredo 1 21 Aug 15:15:11 15:18:06 82° 209° (SSW) 15:20:59 437.200
Gurwin Techsat 1B 21 Aug 15:17:03 15:20:31 17° 270° (W) 15:24:00 435.225
ITAMSAT 1 21 Aug 15:17:30 15:22:39 66° 72° (ENE) 15:27:48 435.822/435.867
50 SAT 21 Aug 15:26:26 15:27:28 11° 297° (WNW) 15:28:28 437.505
ITUPSAT 1 21 Aug 15:40:02 15:44:27 36° 98° (E) 15:48:51 437.325
AO-85 21 Aug 15:56:15 15:57:58 12° 250° (WSW) 15:59:43 145.980
BEESAT 2 21 Aug 15:58:13 16:00:50 17° 249° (WSW) 16:03:25 435.950
UKube-1 21 Aug 15:59:42 16:02:34 18° 297° (WNW) 16:05:25 .
YUBILEINY 21 Aug 16:10:22 16:19:07 74° 94° (E) 16:27:51 435.215
DOVE 4 21 Aug 16:14:22 16:18:12 21° 64° (ENE) 16:21:58 437.250
MOZHAYETS 4 21 Aug 16:20:28 16:25:06 83° 103° (ESE) 16:29:44
ISS 21 Aug 16:34:48 16:38:02 57° 216° (SW) 16:41:14 437.550
nSIGHT-1 21 Aug 16:42:21 16:45:29 45° 217° (SW) 16:48:35 .
CUBESAT XI-V 21 Aug 16:42:26 16:46:36 30° 95° (E) 16:50:44 437.345
BEESAT 21 Aug 16:42:47 16:47:26 55° 289° (WNW) 16:52:05 436.000
AO-7 21 Aug 16:43:49 16:51:05 32° 264° (W) 16:58:25 .
RS-15 21 Aug 16:51:45 17:02:00 29° 9° (N) 17:11:55 29.354- 29.394
ITAMSAT 1 21 Aug 16:59:19 17:02:34 17° 269° (W) 17:05:50 435.822/435.867
XW-2C 21 Aug 17:03:07 17:05:14 15° 64° (ENE) 17:07:22 145.795 - 145.815
XW-2F 21 Aug 17:14:06 17:16:41 18° 66° (ENE) 17:19:17 145.980 - 146.000
ITUPSAT 1 21 Aug 17:18:08 17:22:08 27° 295° (WNW) 17:26:07 437.325
CUTE-I 21 Aug 17:32:03 17:36:53 36° 66° (ENE) 17:41:43 437.470
HO-68 21 Aug 17:33:52 17:39:00 22° 54° (NE) 17:44:09 435.675
KAITUO 1B 21 Aug 17:37:19 17:40:27 26° 69° (ENE) 17:43:36 145.475/437.950
O/OREOS (USA 219) 21 Aug 17:40:07 17:40:45 10° 45° (NE) 17:41:25 437.305
DOVE 4 21 Aug 17:50:16 17:55:28 58° 260° (W) 18:00:34 437.250
CUTE 1.7 + AOD 2 21 Aug 17:54:04 17:55:42 12° 61° (ENE) 17:57:20 437.475
MOZHAYETS 4 21 Aug 17:59:41 18:01:35 12° 301° (WNW) 18:03:30
LilacSat-2 21 Aug 18:01:50 18:05:35 74° 76° (ENE) 18:09:23 437.200
KKS-1 21 Aug 18:03:01 18:07:29 87° 103° (ESE) 18:11:54 437.445
XW-2D 21 Aug 18:05:02 18:08:46 78° 76° (ENE) 18:12:34 145.860 - 145.880
NUDT-PHONESAT 21 Aug 18:08:17 18:11:53 59° 74° (ENE) 18:15:32 437.300
YUBILEINY 21 Aug 18:09:44 18:16:49 26° 296° (WNW) 18:23:55 435.215
CUBEBUG 2 21 Aug 18:14:28 18:15:00 10° 60° (ENE) 18:15:31 437.445
XW-2B 21 Aug 18:16:07 18:19:52 80° 258° (WSW) 18:23:40 145.730 - 145.750
CUBESAT XI-V 21 Aug 18:19:47 18:23:55 31° 293° (WNW) 18:28:02 437.345
XW-2C 21 Aug 18:35:27 18:39:03 44° 261° (W) 18:42:41 145.795 - 145.815
SEEDS 21 Aug 18:38:28 18:41:42 22° 66° (ENE) 18:44:57 437.485
STARS 21 Aug 18:39:19 18:43:42 88° 104° (ESE) 18:48:04 437.465
XW-2F 21 Aug 18:47:08 18:50:33 34° 263° (W) 18:54:02 145.980 - 146.000
XW-2A 21 Aug 18:58:03 19:00:45 23° 69° (ENE) 19:03:28 145.665 - 145.685
RS-15 21 Aug 19:06:15 19:18:09 53° 42° (NE) 19:29:23 29.354- 29.394
KAITUO 1B 21 Aug 19:11:27 19:14:24 22° 266° (W) 19:17:24 145.475/437.950
CUTE-I 21 Aug 19:12:08 19:16:55 33° 264° (W) 19:21:43 437.470
STRAND 1 21 Aug 19:12:50 19:15:56 16° 90° (E) 19:19:01 437.568
O/OREOS (USA 219) 21 Aug 19:16:31 19:21:03 70° 64° (ENE) 19:25:36 437.305
HO-68 21 Aug 19:18:44 19:25:54 85° 253° (WSW) 19:33:06 435.675
AAUSAT CUBESAT 2 21 Aug 19:20:59 19:24:33 28° 68° (ENE) 19:28:08 437.432
CUTE 1.7 + AOD 2 21 Aug 19:26:42 19:30:55 74° 259° (W) 19:35:12 437.475
UWE-3 21 Aug 19:37:52 19:41:50 44° 72° (ENE) 19:45:48 435.000/436.395/437.385
KKS-1 21 Aug 19:42:01 19:43:20 11° 302° (WNW) 19:44:39 437.445
Oscar 11 21 Aug 19:45:06 19:48:21 21° 65° (ENE) 19:51:37 .
CUBEBUG 2 21 Aug 19:46:43 19:51:00 84° 260° (W) 19:55:12 437.445
SEEDS 21 Aug 20:13:16 20:17:10 36° 263° (W) 20:21:05 437.485
ZACube-1 21 Aug 20:15:27 20:19:32 63° 74° (ENE) 20:23:38 437.345
STARS 21 Aug 20:18:19 20:19:20 11° 302° (WNW) 20:20:21 437.465
DELFI C3 21 Aug 20:20:49 20:22:21 12° 62° (ENE) 20:23:53 145.870
XW-2A 21 Aug 20:30:58 20:33:26 19° 266° (W) 20:35:57 145.665 - 145.685
AO-73 21 Aug 20:36:03 20:40:11 86° 256° (WSW) 20:44:20 145.935
EO-88 21 Aug 20:48:20 20:49:58 13° 63° (ENE) 20:51:36 145.990 - 145.960
FO-29 21 Aug 20:50:24 20:51:34 11° 84° (E) 20:52:43 435.910
STRAND 1 21 Aug 20:50:31 20:55:34 66° 287° (WNW) 21:00:37 437.568
AAUSAT CUBESAT 2 21 Aug 20:56:26 20:59:57 26° 265° (W) 21:03:31 437.432
O/OREOS (USA 219) 21 Aug 20:57:53 20:59:51 13° 262° (W) 21:01:48 437.305
HO-68 21 Aug 21:10:36 21:14:38 16° 272° (W) 21:18:39 435.675
UWE-3 21 Aug 21:15:52 21:18:32 16° 268° (W) 21:21:11 435.000/436.395/437.385
RS-15 21 Aug 21:19:16 21:30:48 56° 247° (WSW) 21:41:44 29.354- 29.394
Oscar 11 21 Aug 21:20:13 21:24:14 38° 263° (W) 21:28:18 .
Max Valier Satellite 21 Aug 21:27:48 21:31:17 45° 73° (ENE) 21:34:48 145.860
TIGRISAT 21 Aug 21:46:17 21:48:28 14° 90° (E) 21:50:41 435.000
PCSat 21 Aug 21:47:05 21:51:02 21° 106° (ESE) 21:54:59 145.827
DELFI C3 21 Aug 21:52:35 21:56:33 66° 258° (WSW) 22:00:34 145.870
ZACube-1 21 Aug 21:54:50 21:56:15 11° 271° (W) 21:57:40 437.345
LO-87 21 Aug 22:14:13 22:16:37 17° 67° (ENE) 22:19:01 145.935 - 145.965
EO-88 21 Aug 22:19:41 22:23:12 49° 260° (W) 22:26:46 145.990 - 145.960
ESTCUBE 1 21 Aug 22:30:11 22:33:39 22° 65° (ENE) 22:37:10 437.505/2401.250
FO-29 21 Aug 22:32:04 22:37:43 89° 93° (E) 22:42:56 435.910
PRISM 21 Aug 22:34:02 22:37:41 30° 97° (E) 22:41:19 437.425
UNISAT 6 21 Aug 22:46:24 22:50:42 65° 102° (ESE) 22:55:03 437.425
SO-50 21 Aug 23:00:02 23:04:21 47° 119° (ESE) 23:08:41 436.795
Max Valier Satellite 21 Aug 23:03:46 23:05:23 12° 269° (W) 23:06:59 145.860
TIGRISAT 21 Aug 23:21:17 23:25:31 58° 287° (WNW) 23:29:49 435.000
M-CUBED/EXP-1 PRIME 21 Aug 23:25:30 23:26:38 11° 92° (E) 23:27:46 437.505
PCSat 21 Aug 23:28:35 23:33:56 61° 304° (NW) 23:39:21 145.827
RS-15 21 Aug 23:38:14 23:40:08 11° 270° (W) 23:42:02 29.354- 29.394
LO-87 21 Aug 23:46:33 23:49:49 32° 263° (W) 23:53:05 145.935 - 145.965
DUCHIFAT 1 21 Aug 23:55:51 23:58:17 15° 91° (E) 00:00:43 145.980
AIST 2D 22 Aug 00:05:09 00:08:42 61° 101° (E) 00:12:12 435.315
ESTCUBE 1 22 Aug 00:05:58 00:10:13 40° 262° (W) 00:14:30 437.505/2401.250
SPROUT 22 Aug 00:07:40 00:11:50 55° 73° (ENE) 00:16:00 437.525
VELOX 1 22 Aug 00:07:52 00:12:08 46° 71° (ENE) 00:16:25 145.980
DX 1 22 Aug 00:08:08 00:10:40 15° 62° (ENE) 00:13:15 434.975-435.025
PRISM 22 Aug 00:09:29 00:12:50 24° 294° (WNW) 00:16:09 437.425
FO-29 22 Aug 00:19:07 00:21:53 14° 306° (NW) 00:24:33 435.910
50 SAT 22 Aug 00:24:31 00:27:12 22° 68° (ENE) 00:29:54 437.505
UNISAT 6 22 Aug 00:24:43 00:26:55 14° 298° (WNW) 00:29:08 437.425
NANOSAT C BR1 22 Aug 00:40:11 00:44:18 51° 100° (E) 00:48:23 145.865
SO-50 22 Aug 00:41:14 00:45:01 26° 318° (NW) 00:48:48 436.795
POLYITAN 1 22 Aug 00:45:52 00:50:04 67° 102° (ESE) 00:54:15 437.675
M-CUBED/EXP-1 PRIME 22 Aug 00:57:15 01:01:39 74° 290° (WNW) 01:05:42 437.505
QB50P2 22 Aug 01:01:05 01:05:19 76° 285° (WNW) 01:09:31 145.880/145.840
EO-79 22 Aug 01:01:23 01:05:35 83° 287° (WNW) 01:09:48 145.935-145.965
PCSat 22 Aug 01:15:34 01:18:29 14° 326° (NNW) 01:21:24 145.827
UKube-1 22 Aug 01:18:13 01:22:24 50° 71° (ENE) 01:26:36 .
NO-84 22 Aug 01:18:13 01:21:02 47° 137° (SE) 01:23:48 435.350 FM
BUGSAT 1 22 Aug 01:25:55 01:29:42 38° 98° (E) 01:33:28 437.445
DUCHIFAT 1 22 Aug 01:30:11 01:34:14 50° 288° (WNW) 01:38:16 145.980
AIST 2D 22 Aug 01:41:01 01:41:23 10° 297° (WNW) 01:41:44 435.315
DX 1 22 Aug 01:42:04 01:46:23 60° 258° (WSW) 01:50:44 434.975-435.025
VELOX 1 22 Aug 01:45:44 01:48:48 18° 268° (W) 01:51:54 145.980
SPROUT 22 Aug 01:45:48 01:48:04 14° 270° (W) 01:50:20 437.525
MOZHAYETS 4 22 Aug 01:50:04 01:51:34 11° 59° (ENE) 01:53:05
Gurwin Techsat 1B 22 Aug 01:50:12 01:54:20 22° 93° (E) 01:58:25 435.225
50 SAT 22 Aug 01:57:03 01:59:47 22° 265° (W) 02:02:32 437.505
Oscar 19 22 Aug 02:06:40 02:11:42 47° 99° (E) 02:16:41 437.125/150
BEESAT 22 Aug 02:13:46 02:17:36 25° 65° (ENE) 02:21:26 436.000
NANOSAT C BR1 22 Aug 02:17:02 02:19:36 16° 297° (WNW) 02:22:10 145.865
YUBILEINY 22 Aug 02:18:55 02:26:59 40° 70° (ENE) 02:34:58 435.215
POLYITAN 1 22 Aug 02:23:23 02:25:19 13° 299° (WNW) 02:27:14 437.675
ITUPSAT 1 22 Aug 02:48:00 02:52:35 50° 71° (ENE) 02:57:11 437.325
AO-7 22 Aug 02:51:38 02:56:21 16° 88° (E) 03:01:02 .
UKube-1 22 Aug 02:56:01 02:58:41 16° 268° (W) 03:01:23 .
NO-84 22 Aug 02:56:19 02:58:33 20° 336° (NNW) 03:00:48 435.350 FM
BUGSAT 1 22 Aug 03:01:59 03:04:47 19° 295° (WNW) 03:07:36 437.445
MOZHAYETS 4 22 Aug 03:23:27 03:28:01 88° 256° (WSW) 03:32:36
KKS-1 22 Aug 03:29:08 03:30:40 12° 59° (ENE) 03:32:12 437.445
Gurwin Techsat 1B 22 Aug 03:29:24 03:34:33 50° 290° (WNW) 03:39:39 435.225
ITAMSAT 1 22 Aug 03:29:38 03:33:24 20° 92° (E) 03:37:09 435.822/435.867
Oscar 19 22 Aug 03:46:33 03:50:44 25° 297° (WNW) 03:54:53 437.125/150
CUBESAT XI-V 22 Aug 03:46:56 03:51:09 35° 69° (ENE) 03:55:25 437.345
BEESAT 22 Aug 03:50:43 03:55:09 39° 262° (W) 03:59:38 436.000
BEESAT 3 22 Aug 03:57:56 03:59:09 11° 108° (ESE) 04:00:22 437.485
STARS 22 Aug 04:04:22 04:05:38 11° 59° (ENE) 04:06:54 437.465
YUBILEINY 22 Aug 04:15:43 04:23:56 49° 272° (W) 04:32:08 435.215
ITUPSAT 1 22 Aug 04:27:20 04:30:41 19° 268° (W) 04:34:02 437.325
AO-85 22 Aug 04:31:40 04:33:57 15° 111° (ESE) 04:36:15 145.980
NO-84 22 Aug 04:36:28 04:36:51 10° 357° (N) 04:37:13 435.350 FM
AO-7 22 Aug 04:42:01 04:50:24 79° 107° (ESE) 04:58:42 .
KKS-1 22 Aug 05:02:04 05:06:32 85° 253° (WSW) 05:11:02 437.445
ITAMSAT 1 22 Aug 05:08:08 05:13:12 54° 290° (WNW) 05:18:13 435.822/435.867
CUBESAT XI-V 22 Aug 05:24:41 05:28:34 26° 266° (W) 05:32:30 437.345
BEESAT 3 22 Aug 05:32:06 05:36:07 75° 306° (NW) 05:40:10 437.485
STARS 22 Aug 05:36:53 05:41:18 87° 259° (W) 05:45:42 437.465
DOVE 4 22 Aug 05:48:19 05:52:26 34° 95° (E) 05:56:21 437.250
BEESAT 2 22 Aug 05:49:01 05:52:56 55° 120° (ESE) 05:56:54 435.950
CUTE-I 22 Aug 05:49:35 05:51:19 11° 87° (E) 05:53:02 437.470
SO-50 22 Aug 05:50:27 05:52:46 14° 32° (NNE) 05:55:06 436.795
XW-2C 22 Aug 06:07:07 06:09:38 17° 92° (E) 06:12:08 145.795 - 145.815
AO-85 22 Aug 06:10:06 06:13:55 51° 309° (NW) 06:17:46 145.980
NO-84 22 Aug 06:13:19 06:15:14 16° 20° (NNE) 06:17:13 435.350 FM
XW-2F 22 Aug 06:17:48 06:20:42 20° 93° (E) 06:23:37 145.980 - 146.000
